Location: Bidwell Hollow
(37.7387°N, 90.1707°W)
Time: 05:57:53
(UTC+00:00)

Vanguard 3 - All Passes

Search period start: 10 May 2026 00:00
Search period end: 20 May 2026 00:00
Orbit: 507 x 3204 km, 33.3° (Epoch: 8 May)

Date Brightness Start Highest point End Pass type
(mag) Time Alt. Az. Time Alt. Az. Time Alt. Az.
10 May - 00:47:03 10° W 01:02:52 67° SSW 01:11:54 10° ESE daylight
10 May - 03:04:23 10° W 03:14:19 32° SW 03:20:33 10° SSE visible
10 May - 16:48:40 10° SSE 16:56:10 14° SE 17:03:55 10° ESE daylight
10 May - 18:52:40 10° SSW 19:09:25 40° SE 19:25:03 10° E daylight
10 May - 21:04:59 10° WSW 21:24:21 66° SSE 21:38:49 10° E daylight
10 May - 23:21:05 10° W 23:39:21 75° S 23:50:34 10° E daylight
11 May - 01:38:24 10° W 01:52:29 53° SSW 02:00:37 10° SE visible
11 May - 03:56:57 10° W 04:02:40 16° SW 04:07:00 10° SSW visible
11 May - 17:32:02 10° S 17:45:31 26° SE 17:59:32 10° E daylight
11 May - 19:41:13 10° SW 19:59:36 54° SSE 20:15:45 10° E daylight
11 May - 21:55:30 10° WSW 22:15:00 74° S 22:28:35 10° E daylight
12 May - 00:12:23 10° W 00:29:35 68° SSW 00:39:46 10° ESE daylight
12 May - 02:29:57 10° W 02:41:30 35° SW 02:48:39 10° SSE visible
12 May - 16:15:23 10° SSE 16:22:19 13° SE 16:29:42 10° ESE daylight
12 May - 18:18:57 10° SSW 18:35:10 40° SE 18:51:34 10° E daylight
12 May - 20:30:48 10° WSW 20:50:09 67° SSE 21:05:55 10° E daylight
12 May - 22:46:30 10° W 23:05:38 75° S 23:18:09 10° E daylight
13 May - 01:03:46 10° W 01:19:20 55° SSW 01:28:32 10° SE visible
13 May - 03:22:29 10° W 03:29:54 19° SW 03:35:19 10° S visible
13 May - 16:58:38 10° S 17:11:26 26° SE 17:25:36 10° E daylight
13 May - 19:07:24 10° SW 19:25:16 55° SSE 19:42:27 10° E daylight
13 May - 21:21:11 10° WSW 21:40:54 75° S 21:55:51 10° E daylight
13 May - 23:37:44 10° W 23:56:02 69° SSW 00:07:28 10° ESE daylight
14 May - 01:55:22 10° W 02:08:28 37° SW 02:16:38 10° SSE visible
14 May - 15:42:30 10° SSE 15:48:32 13° SE 15:55:05 10° ESE daylight
14 May - 17:45:30 10° SSW 18:00:55 40° SE 18:17:50 10° E daylight
14 May - 19:56:52 10° WSW 20:15:49 67° SSE 20:32:48 10° E daylight
14 May - 22:12:02 10° W 22:31:41 76° S 22:45:35 10° E daylight
15 May - 00:29:05 10° W 00:45:57 56° SSW 00:56:20 10° SE daylight
15 May - 02:47:52 10° W 02:56:59 21° SW 03:03:29 10° S visible
15 May - 16:25:29 10° S 16:37:26 26° SE 16:51:24 10° E daylight
15 May - 18:33:50 10° SW 18:50:54 55° SSE 19:08:53 10° E daylight
15 May - 20:47:05 10° WSW 21:06:39 75° S 21:22:54 10° E daylight
15 May - 23:03:10 10° W 23:22:15 70° SSW 23:35:01 10° ESE daylight
16 May - 01:20:41 10° W 01:35:14 40° SW 01:44:31 10° SSE visible
16 May - 15:10:05 10° SE 15:14:51 12° SE 15:20:02 10° ESE daylight
16 May - 17:12:16 10° SSW 17:26:43 40° SE 17:43:50 10° E daylight
16 May - 19:23:10 10° WSW 19:41:24 68° SSE 19:59:26 10° E daylight
16 May - 21:37:46 10° W 21:57:34 77° S 22:12:47 10° ESE daylight
16 May - 23:54:26 10° W 00:12:21 58° SSW 00:23:58 10° SE daylight
17 May - 02:13:09 10° W 02:23:53 24° SW 02:31:29 10° S visible
17 May - 15:52:36 10° S 16:03:31 25° SE 16:16:59 10° E daylight
17 May - 18:00:31 10° SW 18:16:33 55° SSE 18:35:04 10° E daylight
17 May - 20:13:13 10° WSW 20:32:16 76° S 20:49:43 10° E daylight
17 May - 22:28:44 10° W 22:48:16 71° SSW 23:02:21 10° ESE daylight
18 May - 00:45:59 10° W 01:01:48 42° SW 01:12:15 10° SSE daylight
18 May - 03:10:03 10° WSW 03:12:04 10° SW 03:13:56 10° SW visible
18 May - 14:38:31 10° SE 14:41:17 11° SE 14:44:14 10° ESE daylight
18 May - 16:39:18 10° SSW 16:52:36 39° SE 17:09:35 10° E daylight
18 May - 18:49:43 10° WSW 19:06:58 68° SSE 19:25:48 10° E daylight
18 May - 21:03:43 10° W 21:23:15 77° S 21:39:47 10° ESE daylight
18 May - 23:19:52 10° W 23:38:32 59° SSW 23:51:27 10° SE daylight
19 May - 01:38:23 10° W 01:50:35 26° SW 01:59:19 10° S visible
19 May - 15:19:56 10° S 15:29:45 24° SE 15:42:21 10° E daylight
19 May - 17:27:26 10° SW 17:42:17 55° SSE 18:01:00 10° E daylight
19 May - 19:39:35 10° WSW 19:57:49 76° S 20:16:17 10° E daylight
19 May - 21:54:29 10° W 22:14:06 71° SSW 22:29:32 10° ESE daylight
